Flag for India Weather past 2 weeks in Sivaganga, Tamil Nadu, India

Now
84 °F

Passing clouds.


Feels Like: 91 °F
Forecast: 78 / 98 °F
Wind: 9 mph from Northwest

Location: Tiruchchirapalli

Current Time: Jun 30, 2015 at 9:00:09 AM

Latest Report: Jun 30, 2015 at 8:10 AM


Visibility: 4 mi

Pressure: 29.83 "Hg

Humidity: 70%

Dew point: 73 °F

Location of SivagangaLocation

Historic Weather in Sivaganga — Graph

°F

Sivaganga temperature yesterday

Maximum temperature yesterday: 100 °F (at 1:40 PM)
Minimum temperature yesterday: 79 °F (at 8:40 PM)
Average temperature yesterday: 86 °F

Past Weeks' High & Low Weather Summary

 TemperatureHumidityPressure
High102 °F (Jun 24, 2:40 PM)89% (Jun 17, 1:10 AM)29.86 "Hg (Jun 17, 1:10 AM)
Low79 °F (Jun 17, 1:10 AM)35% (Jun 22, 2:40 PM)29.59 "Hg (Jun 15, 4:10 PM)
Average88 °F57%29.70 "Hg
* Reported Jun 15 7:40 AM — Jun 30 7:40 AM, Sivaganga, Weather by CustomWeather, © 2015

Note: Actual official high and low records may vary slightly from our data, if they occured in-between our weather recording intervals... More about our weather records

Advertising

Sivaganga weather history for previous 24 hours

 ConditionsComfort  
Time TempWeatherWind HumidityBarometerVisibility
7:40 AM
Tue, Jun 30
82 °FPassing clouds.7 mph70%29.80 "Hg4 mi
7:10 AM81 °FScattered clouds.5 mph74%29.80 "Hg4 mi
6:40 AM79 °FScattered clouds.6 mph79%29.80 "Hg4 mi
6:10 AM79 °FPassing clouds.7 mph79%29.77 "Hg4 mi
5:40 AM79 °FPassing clouds.6 mph79%29.77 "Hg4 mi
5:10 AM79 °FPassing clouds.6 mph79%29.77 "Hg4 mi
4:40 AM79 °FPassing clouds.5 mph79%29.77 "Hg4 mi
4:10 AM79 °FPassing clouds.7 mph79%29.77 "Hg4 mi
3:40 AM79 °FPassing clouds.6 mph79%29.77 "Hg4 mi
3:10 AM79 °FPassing clouds.7 mph79%29.77 "Hg4 mi
2:40 AM79 °FPartly cloudy.6 mph79%29.77 "Hg4 mi
2:10 AM79 °FPartly cloudy.7 mph84%29.80 "Hg4 mi
1:40 AM79 °FPartly cloudy.5 mph84%29.80 "Hg4 mi
1:10 AM79 °FPartly cloudy.3 mph84%29.80 "Hg4 mi
12:40 AM79 °FPassing clouds.6 mph84%29.80 "Hg4 mi
12:10 AM79 °FPassing clouds.7 mph84%29.83 "Hg4 mi
11:40 PM
Mon, Jun 29
79 °FPassing clouds.5 mph84%29.83 "Hg4 mi
11:10 PM79 °FPassing clouds.6 mph79%29.83 "Hg4 mi
10:40 PM79 °FPassing clouds.5 mph79%29.83 "Hg4 mi
10:10 PM79 °FPassing clouds.3 mph79%29.83 "Hg4 mi
9:10 PM79 °FPartly cloudy.7 mph79%29.83 "Hg4 mi
8:40 PM79 °FPartly cloudy.6 mph79%29.83 "Hg4 mi
8:10 PM81 °FPartly cloudy.6 mph79%29.83 "Hg4 mi
7:40 PM81 °FPartly cloudy.8 mph79%29.80 "Hg4 mi
7:10 PM81 °FPartly cloudy.9 mph84%29.80 "Hg4 mi
6:40 PM81 °FBroken clouds.8 mph84%29.77 "Hg4 mi
6:10 PM81 °FBroken clouds.9 mph84%29.74 "Hg4 mi
5:40 PM81 °FBroken clouds.13 mph84%29.74 "Hg4 mi
4:10 PM88 °FScattered clouds.8 mph62%29.74 "Hg4 mi
3:40 PM86 °FScattered clouds.13 mph66%29.74 "Hg4 mi
3:10 PM88 °FScattered clouds.9 mph62%29.74 "Hg4 mi
2:10 PM100 °FScattered clouds.10 mph37%29.74 "Hg5 mi
1:40 PM100 °FScattered clouds.12 mph37%29.77 "Hg5 mi
1:10 PM99 °FScattered clouds.10 mph39%29.80 "Hg5 mi
12:40 PM99 °FPassing clouds.9 mph39%29.80 "Hg4 mi
12:10 PM99 °FPassing clouds.9 mph42%29.83 "Hg4 mi
11:40 AM97 °FPassing clouds.9 mph44%29.83 "Hg4 mi
11:10 AM95 °FPassing clouds.12 mph44%29.83 "Hg4 mi
10:40 AM93 °FPassing clouds.9 mph49%29.86 "Hg4 mi
10:10 AM90 °FPassing clouds.16 mph49%29.86 "Hg4 mi
9:40 AM90 °FPassing clouds.13 mph55%29.86 "Hg4 mi
9:10 AM88 °FHaze.17 mph59%29.86 "Hg3 mi
Weather by CustomWeather, © 2015

See weather overviewHow to use our weather pages